Skykraft 4D

operational
NORAD ID: 64898 Int'l Des: 2025-154 Owner: SKYKR Country: AU
LEOCIRCULARRETROGRADESSO
追跡 地上

Skykraft 4Dについて

説明を読み込み中...

リアルタイム位置

3D地球を読み込み中...

次回通過

高度履歴

Altitude vs Time

uPlot chart will show altitude changes over time

軌道要素

1 64898U 25154K 26072.64076300 .00006604 00000-0 60801-3 0 9999
2 64898 97.6768 138.7850 0004464 199.1388 160.9666 14.95049174 33014
Epoch: Mar 13, 2026 • Age: 31 hours

現在のステータス

高度 604.8 km
速度 7.56 km/s
衛星直下点 -55.85°S, 128.93°W
打ち上げ日 Jul 23, 2025
運用期間 0.6 years
タイプ other

技術仕様

分類 Payload
質量 50.00 kg
乾燥質量 50.00 kg
総質量 50.00 kg
長さ 0.60 m
直径 0.10 m
スパン 0.60 m
形状 Box
製造者 SKYKR
バスタイプ Skykraft
フェーズステータス In Orbit
所有者/国 SKYKR/AU

大規模コンステレーション

Loading constellations...